This demonstration page uses our WeatherBlox Daily Observations layout. Learn more.

Left ArrowRight Arrow

Hourly Observations for May 18, 2015

Temp ( °F °C ) Dew Point ( °F °C ) Humidity (%) Winds ( mph kmh ) Pressure ( in mb ) Visibility ( mi km ) Precip ( " mm )
12:58 am 00:58 Clear 58 14.5 48 8.9 69 69 NNW 13 20 30.01 1016 10 16 0.00 0.00
1:58 am 01:58 Clear 55 12.7 45 7.4 70 70 NNW 10 17 30.06 1018 10 16 0.00 0.00
2:58 am 02:58 Clear 53 11.6 43 6.3 70 70 NW 8 13 30.08 1019 10 16 0.00 0.00
3:58 am 03:58 Clear 52 11 42 5.7 70 70 NW 17 28 30.10 1019 10 16 0.00 0.00
4:58 am 04:58 Clear 50 9.8 40 4.4 69 69 NW 13 20 30.13 1020 10 16 0.00 0.00
5:58 am 05:58 Clear 47 8.4 40 4.4 76 76 WNW 8 13 30.17 1022 10 16 0.00 0.00
6:28 am 06:28 Mostly Cloudy 48 9 37 3 66 66 WNW 13 20 30.21 1023 10 16 0.00 0.00
6:34 am 06:34 Mostly Cloudy 48 9 37 3 66 66 NW 16 26 30.21 1023 10 16 0.00 0.00
6:58 am 06:58 Cloudy 49 9.3 38 3.1 66 66 NW 9 15 30.20 1023 10 16 0.00 0.00
7:58 am 07:58 Sunny 48 9 35 1.6 60 60 NW 20 31 30.24 1024 10 16 0.00 0.00
8:58 am 08:58 Mostly Sunny 49 9.3 36 2 61 61 NNW 16 26 30.27 1025 10 16 0.00 0.00
9:58 am 09:58 Mostly Cloudy 50 9.8 36 2.3 60 60 NW 14 22 30.29 1026 10 16 0.00 0.00
10:58 am 10:58 Sunny 51 10.3 36 2.1 57 57 NW 20 31 30.30 1026 10 16 0.00 0.00
11:29 am 11:29 Sunny 52 11 37 3 58 58 WNW 16 26 30.30 1026 10 16 0.00 0.00
11:43 am 11:43 Sunny 54 12 39 4 58 58 WNW 15 24 30.30 1026 10 16 0.00 0.00
11:58 am 11:58 Sunny 53 11.4 38 3.2 57 57 NW 18 30 30.31 1027 10 16 0.00 0.00
12:39 pm 12:39 Sunny 54 12 37 3 54 54 NNW 15 24 30.30 1026 10 16 0.00 0.00
12:58 pm 12:58 Sunny 54 12.2 38 3.4 55 55 NW 13 20 30.32 1027 10 16 0.00 0.00
1:22 pm 13:22 Sunny 55 13 39 4 55 55 WNW 15 24 30.30 1026 10 16 0.00 0.00
1:33 pm 13:33 Sunny 55 13 39 4 55 55 NNW 14 22 30.30 1026 10 16 0.00 0.00
1:58 pm 13:58 Sunny 57 13.7 40 4.6 54 54 NW 17 28 30.31 1027 10 16 0.00 0.00
2:58 pm 14:58 Sunny 58 14.5 40 4.6 52 52 WNW 17 28 30.30 1026 10 16 0.00 0.00
2:59 pm 14:59 Sunny 59 15 39 4 48 48 WNW 14 22 30.30 1026 10 16 0.00 0.00
3:30 pm 15:30 Sunny 59 15 41 5 51 51 NNW 13 20 30.30 1026 10 16 0.00 0.00
3:58 pm 15:58 Sunny 59 15.2 40 4.5 49 49 NW 14 22 30.30 1026 10 16 0.00 0.00
4:58 pm 16:58 Sunny 61 16 39 4 45 45 NNW 13 20 30.30 1026 10 16 0.00 0.00
5:58 pm 17:58 Sunny 60 15.6 39 3.9 46 46 NW 14 22 30.31 1026 10 16 0.00 0.00
6:58 pm 18:58 Sunny 59 15.1 39 3.8 47 47 NW 13 20 30.31 1026 10 16 0.00 0.00
7:58 pm 19:58 Sunny 57 13.9 38 3.4 49 49 NNW 12 19 30.31 1026 10 16 0.00 0.00
8:58 pm 20:58 Clear 54 12.3 38 3.5 55 55 N 7 11 30.32 1027 10 16 0.00 0.00
9:58 pm 21:58 Clear 52 11.1 39 4 62 62 N 8 13 30.34 1027 10 16 0.00 0.00
10:58 pm 22:58 Clear 51 10.3 39 3.7 64 64 N 8 13 30.36 1028 10 16 0.00 0.00
11:58 pm 23:58 Clear 49 9.2 38 3.5 68 68 N 13 20 30.36 1028 10 16 0.00 0.00

Powered by AerisWeather